Time,TemperatureF,DewpointF,PressureIn,WindDirection,WindDirectionDegrees,WindSpeedMPH,WindSpeedGustMPH,Humidity,HourlyPrecipIn,Conditions,Clouds,dailyrainin,SoftwareType,DateUTC
2013-08-24 00:01:00,71.1,66.7,29.82,SE,125,6.0,6.0,86,0.00,,CLR,0.00,VWS V14.01,2013-08-24 05:01:00,
2013-08-24 00:06:00,71.1,66.7,29.82,East,99,5.0,10.0,86,0.00,,CLR,0.00,VWS V14.01,2013-08-24 05:06:00,
2013-08-24 00:11:00,71.1,66.7,29.82,ESE,105,5.0,10.0,86,0.00,,CLR,0.00,VWS V14.01,2013-08-24 05:11:00,
2013-08-24 00:16:00,71.1,66.7,29.83,ESE,106,3.0,10.0,86,0.00,,CLR,0.00,VWS V14.01,2013-08-24 05:16:00,
2013-08-24 00:21:00,71.1,66.7,29.83,ESE,115,7.0,10.0,86,0.00,,CLR,0.00,VWS V14.01,2013-08-24 05:21:00,
2013-08-24 00:26:00,71.1,66.7,29.83,East,98,5.0,11.0,86,0.00,,CLR,0.00,VWS V14.01,2013-08-24 05:26:00,
2013-08-24 00:31:00,71.1,66.7,29.83,ESE,106,2.0,8.0,86,0.00,,CLR,0.00,VWS V14.01,2013-08-24 05:31:00,
2013-08-24 00:36:00,71.1,66.7,29.83,ESE,106,3.0,8.0,86,0.00,,CLR,0.00,VWS V14.01,2013-08-24 05:36:00,
2013-08-24 00:41:00,70.9,66.5,29.83,ESE,108,3.0,8.0,86,0.00,,CLR,0.00,VWS V14.01,2013-08-24 05:41:00,
2013-08-24 00:46:00,70.9,66.5,29.83,ESE,102,2.0,8.0,86,0.00,,CLR,0.00,VWS V14.01,2013-08-24 05:46:00,
2013-08-24 00:51:00,70.9,66.5,29.83,ESE,103,6.0,9.0,86,0.00,,CLR,0.00,VWS V14.01,2013-08-24 05:51:00,
2013-08-24 00:56:00,70.9,66.5,29.83,ESE,115,6.0,9.0,86,0.00,,CLR,0.00,VWS V14.01,2013-08-24 05:56:00,
2013-08-24 01:01:00,70.9,66.5,29.83,ESE,106,4.0,7.0,86,0.00,,CLR,0.00,VWS V14.01,2013-08-24 06:01:00,
2013-08-24 01:06:00,70.9,66.5,29.83,SE,127,9.0,9.0,86,0.00,,CLR,0.00,VWS V14.01,2013-08-24 06:06:00,
2013-08-24 01:11:00,70.9,66.2,29.83,ESE,106,5.0,9.0,85,0.00,,CLR,0.00,VWS V14.01,2013-08-24 06:11:00,
2013-08-24 01:16:00,70.9,66.2,29.82,ESE,109,3.0,9.0,85,0.00,,CLR,0.00,VWS V14.01,2013-08-24 06:16:00,
2013-08-24 01:21:00,70.9,66.2,29.82,SE,132,5.0,9.0,85,0.00,,CLR,0.00,VWS V14.01,2013-08-24 06:21:00,
2013-08-24 01:26:00,70.9,66.2,29.82,ESE,115,7.0,12.0,85,0.00,,CLR,0.00,VWS V14.01,2013-08-24 06:26:00,
2013-08-24 01:31:00,71.1,66.0,29.82,SE,130,6.0,11.0,84,0.00,,CLR,0.00,VWS V14.01,2013-08-24 06:31:00,
2013-08-24 01:36:00,71.1,66.0,29.82,ESE,108,7.0,13.0,84,0.00,,CLR,0.00,VWS V14.01,2013-08-24 06:36:00,
2013-08-24 01:41:00,70.9,65.8,29.82,ESE,109,6.0,13.0,84,0.00,,CLR,0.00,VWS V14.01,2013-08-24 06:41:00,
2013-08-24 01:46:00,70.9,65.8,29.82,ESE,113,6.0,13.0,84,0.00,,CLR,0.00,VWS V14.01,2013-08-24 06:46:00,
2013-08-24 01:51:00,70.8,65.7,29.82,SE,132,8.0,13.0,84,0.00,,CLR,0.00,VWS V14.01,2013-08-24 06:51:00,
2013-08-24 01:56:00,70.8,65.7,29.82,ESE,123,7.0,13.0,84,0.00,,CLR,0.00,VWS V14.01,2013-08-24 06:56:00,
2013-08-24 02:01:00,70.8,65.7,29.82,SE,132,6.0,10.0,84,0.00,,CLR,0.00,VWS V14.01,2013-08-24 07:01:00,
2013-08-24 02:06:00,70.8,65.7,29.82,ESE,123,0.0,10.0,84,0.00,,CLR,0.00,VWS V14.01,2013-08-24 07:06:00,
2013-08-24 02:11:00,70.8,65.4,29.82,ESE,123,6.0,10.0,83,0.00,,CLR,0.00,VWS V14.01,2013-08-24 07:11:00,
2013-08-24 02:16:00,70.8,65.4,29.82,SE,127,1.0,10.0,83,0.00,,CLR,0.00,VWS V14.01,2013-08-24 07:16:00,
2013-08-24 02:21:00,70.9,65.5,29.82,SE,129,7.0,10.0,83,0.00,,CLR,0.00,VWS V14.01,2013-08-24 07:21:00,
2013-08-24 02:26:00,70.9,65.5,29.82,SE,134,6.0,10.0,83,0.00,,CLR,0.00,VWS V14.01,2013-08-24 07:26:00,
2013-08-24 02:31:00,71.1,65.3,29.82,ESE,123,6.0,12.0,82,0.00,,CLR,0.00,VWS V14.01,2013-08-24 07:31:00,
2013-08-24 02:36:00,71.3,65.5,29.82,SE,127,2.0,12.0,82,0.00,,CLR,0.00,VWS V14.01,2013-08-24 07:36:00,
2013-08-24 02:41:00,71.5,65.4,29.82,SE,132,10.0,16.0,81,0.00,,CLR,0.00,VWS V14.01,2013-08-24 07:41:00,
2013-08-24 02:46:00,71.6,65.5,29.83,ESE,123,5.0,16.0,81,0.00,,CLR,0.00,VWS V14.01,2013-08-24 07:46:00,
2013-08-24 02:51:00,71.8,65.3,29.83,SE,133,13.0,16.0,80,0.00,,CLR,0.00,VWS V14.01,2013-08-24 07:51:00,
2013-08-24 02:56:00,71.8,65.3,29.83,SE,132,7.0,16.0,80,0.00,,CLR,0.00,VWS V14.01,2013-08-24 07:56:00,
2013-08-24 03:01:00,72.0,65.5,29.83,ESE,113,6.0,12.0,80,0.00,,CLR,0.00,VWS V14.01,2013-08-24 08:01:00,
2013-08-24 03:06:00,72.0,65.5,29.83,ESE,119,6.0,16.0,80,0.00,,CLR,0.00,VWS V14.01,2013-08-24 08:06:00,
2013-08-24 03:11:00,72.0,65.5,29.83,SE,130,7.0,16.0,80,0.00,,CLR,0.00,VWS V14.01,2013-08-24 08:11:00,
2013-08-24 03:16:00,72.0,65.5,29.82,ESE,116,7.0,16.0,80,0.00,,CLR,0.00,VWS V14.01,2013-08-24 08:16:00,
2013-08-24 03:22:00,72.0,65.5,29.82,SE,132,3.0,16.0,80,0.00,,CLR,0.00,VWS V14.01,2013-08-24 08:22:00,
2013-08-24 03:27:00,71.8,65.3,29.82,SSE,147,2.0,16.0,80,0.00,,CLR,0.00,VWS V14.01,2013-08-24 08:27:00,
2013-08-24 03:32:00,71.8,65.3,29.82,SE,139,6.0,9.0,80,0.00,,CLR,0.00,VWS V14.01,2013-08-24 08:32:00,
2013-08-24 03:37:00,71.8,65.3,29.82,SSE,158,12.0,12.0,80,0.00,,CLR,0.00,VWS V14.01,2013-08-24 08:37:00,
2013-08-24 03:42:00,71.8,65.3,29.82,ESE,123,11.0,13.0,80,0.00,,CLR,0.00,VWS V14.01,2013-08-24 08:42:00,
2013-08-24 03:47:00,72.0,65.5,29.83,SE,126,9.0,13.0,80,0.00,,CLR,0.00,VWS V14.01,2013-08-24 08:47:00,
2013-08-24 03:52:00,72.0,65.5,29.83,SE,127,11.0,13.0,80,0.00,,CLR,0.00,VWS V14.01,2013-08-24 08:52:00,
2013-08-24 03:57:00,72.0,65.1,29.83,SE,134,9.0,13.0,79,0.00,,CLR,0.00,VWS V14.01,2013-08-24 08:57:00,
2013-08-24 04:02:00,72.0,65.1,29.83,ESE,116,3.0,8.0,79,0.00,,CLR,0.00,VWS V14.01,2013-08-24 09:02:00,
2013-08-24 04:07:00,72.0,65.1,29.83,SSE,150,5.0,13.0,79,0.00,,CLR,0.00,VWS V14.01,2013-08-24 09:07:00,
2013-08-24 04:12:00,71.8,64.9,29.83,ESE,102,10.0,13.0,79,0.00,,CLR,0.00,VWS V14.01,2013-08-24 09:12:00,
2013-08-24 04:17:00,71.8,64.9,29.83,SE,146,7.0,13.0,79,0.00,,CLR,0.00,VWS V14.01,2013-08-24 09:17:00,
2013-08-24 04:22:00,71.8,65.3,29.83,SE,132,2.0,17.0,80,0.00,,CLR,0.00,VWS V14.01,2013-08-24 09:22:00,
2013-08-24 04:27:00,71.8,64.9,29.83,SE,142,6.0,17.0,79,0.00,,CLR,0.00,VWS V14.01,2013-08-24 09:27:00,
2013-08-24 04:32:00,71.8,64.9,29.83,ESE,123,11.0,13.0,79,0.00,,CLR,0.00,VWS V14.01,2013-08-24 09:32:00,
2013-08-24 04:37:00,71.8,64.9,29.83,ESE,112,3.0,16.0,79,0.00,,CLR,0.00,VWS V14.01,2013-08-24 09:37:00,
2013-08-24 04:42:00,71.8,65.3,29.83,ESE,116,6.0,16.0,80,0.00,,CLR,0.00,VWS V14.01,2013-08-24 09:42:00,
2013-08-24 04:47:00,71.6,65.1,29.83,SE,127,7.0,16.0,80,0.00,,CLR,0.00,VWS V14.01,2013-08-24 09:47:00,
2013-08-24 04:52:00,71.6,65.1,29.83,SE,132,8.0,16.0,80,0.00,,CLR,0.00,VWS V14.01,2013-08-24 09:52:00,
2013-08-24 04:57:00,71.5,65.0,29.83,SE,132,10.0,16.0,80,0.00,,CLR,0.00,VWS V14.01,2013-08-24 09:57:00,
2013-08-24 05:02:00,71.5,65.0,29.83,ESE,123,10.0,13.0,80,0.00,,CLR,0.00,VWS V14.01,2013-08-24 10:02:00,
2013-08-24 05:07:00,71.5,65.0,29.83,SE,136,6.0,13.0,80,0.00,,CLR,0.00,VWS V14.01,2013-08-24 10:07:00,
2013-08-24 05:12:00,71.5,65.0,29.83,SE,132,5.0,14.0,80,0.00,,CLR,0.00,VWS V14.01,2013-08-24 10:12:00,
2013-08-24 05:17:00,71.5,65.4,29.83,SE,130,6.0,14.0,81,0.00,,CLR,0.00,VWS V14.01,2013-08-24 10:17:00,
2013-08-24 05:22:00,71.5,65.0,29.83,East,92,9.0,17.0,80,0.00,,CLR,0.00,VWS V14.01,2013-08-24 10:22:00,
2013-08-24 05:27:00,71.5,65.4,29.83,SSE,150,9.0,17.0,81,0.00,,CLR,0.00,VWS V14.01,2013-08-24 10:27:00,
2013-08-24 05:32:00,71.6,65.1,29.83,ESE,120,8.0,13.0,80,0.00,,CLR,0.00,VWS V14.01,2013-08-24 10:32:00,
2013-08-24 05:37:00,71.6,65.1,29.83,ESE,122,11.0,17.0,80,0.00,,CLR,0.00,VWS V14.01,2013-08-24 10:37:00,
2013-08-24 05:42:00,71.6,65.1,29.83,SE,126,3.0,17.0,80,0.00,,CLR,0.00,VWS V14.01,2013-08-24 10:42:00,
2013-08-24 05:47:00,71.6,65.1,29.83,ESE,113,11.0,17.0,80,0.00,,CLR,0.00,VWS V14.01,2013-08-24 10:47:00,
2013-08-24 05:52:00,71.6,65.1,29.83,SE,126,7.0,17.0,80,0.00,,CLR,0.00,VWS V14.01,2013-08-24 10:52:00,
2013-08-24 05:57:00,71.6,65.1,29.83,SE,134,8.0,17.0,80,0.00,,CLR,0.00,VWS V14.01,2013-08-24 10:57:00,
2013-08-24 06:02:00,71.6,65.1,29.83,SE,133,3.0,12.0,80,0.00,,CLR,0.00,VWS V14.01,2013-08-24 11:02:00,
2013-08-24 06:07:00,71.6,65.1,29.83,SE,142,8.0,12.0,80,0.00,,CLR,0.00,VWS V14.01,2013-08-24 11:07:00,
2013-08-24 06:12:00,71.6,65.1,29.83,SE,125,7.0,18.0,80,0.00,,CLR,0.00,VWS V14.01,2013-08-24 11:12:00,
2013-08-24 06:17:00,71.5,65.0,29.84,SE,126,8.0,18.0,80,0.00,,CLR,0.00,VWS V14.01,2013-08-24 11:17:00,
2013-08-24 06:22:00,71.5,65.0,29.84,SE,137,12.0,18.0,80,0.00,,CLR,0.00,VWS V14.01,2013-08-24 11:22:00,
2013-08-24 06:27:00,71.5,65.4,29.84,SSE,147,7.0,18.0,81,0.00,,CLR,0.00,VWS V14.01,2013-08-24 11:27:00,
2013-08-24 06:32:00,71.3,65.2,29.84,SE,125,5.0,14.0,81,0.00,,CLR,0.00,VWS V14.01,2013-08-24 11:32:00,
2013-08-24 06:37:00,71.3,65.2,29.84,ESE,123,2.0,17.0,81,0.00,,CLR,0.00,VWS V14.01,2013-08-24 11:37:00,
2013-08-24 06:42:00,71.1,65.7,29.84,ESE,113,13.0,17.0,83,0.00,,CLR,0.00,VWS V14.01,2013-08-24 11:42:00,
2013-08-24 06:47:00,71.1,65.7,29.85,South,171,10.0,17.0,83,0.00,,CLR,0.00,VWS V14.01,2013-08-24 11:47:00,
2013-08-24 06:52:00,71.1,65.7,29.85,SE,142,5.0,17.0,83,0.00,,CLR,0.00,VWS V14.01,2013-08-24 11:52:00,
2013-08-24 06:57:00,70.9,65.1,29.85,SSE,160,8.0,17.0,82,0.00,,CLR,0.00,VWS V14.01,2013-08-24 11:57:00,
2013-08-24 07:02:00,70.9,65.1,29.85,SE,136,6.0,14.0,82,0.00,,CLR,0.00,VWS V14.01,2013-08-24 12:02:00,
2013-08-24 07:07:00,70.9,65.1,29.85,SE,132,3.0,14.0,82,0.00,,CLR,0.00,VWS V14.01,2013-08-24 12:07:00,
2013-08-24 07:12:00,70.9,65.5,29.85,SSE,153,7.0,14.0,83,0.00,,CLR,0.00,VWS V14.01,2013-08-24 12:12:00,
2013-08-24 07:17:00,70.9,65.5,29.85,SSE,154,11.0,14.0,83,0.00,,CLR,0.00,VWS V14.01,2013-08-24 12:17:00,
2013-08-24 07:22:00,70.8,65.4,29.85,SE,132,7.0,14.0,83,0.00,,CLR,0.00,VWS V14.01,2013-08-24 12:22:00,
2013-08-24 07:27:00,70.8,65.4,29.85,SE,133,12.0,16.0,83,0.00,,CLR,0.00,VWS V14.01,2013-08-24 12:27:00,
2013-08-24 07:32:00,70.9,65.5,29.84,ESE,109,10.0,10.0,83,0.00,,CLR,0.00,VWS V14.01,2013-08-24 12:32:00,
2013-08-24 07:37:00,71.1,65.7,29.84,ESE,116,5.0,14.0,83,0.00,,CLR,0.00,VWS V14.01,2013-08-24 12:37:00,
2013-08-24 07:42:00,71.3,65.9,29.84,SE,125,10.0,14.0,83,0.00,,CLR,0.00,VWS V14.01,2013-08-24 12:42:00,
2013-08-24 07:47:00,71.3,66.2,29.84,SE,130,11.0,19.0,84,0.00,,CLR,0.00,VWS V14.01,2013-08-24 12:47:00,
2013-08-24 07:52:00,71.5,66.1,29.84,SSE,164,15.0,19.0,83,0.00,,CLR,0.00,VWS V14.01,2013-08-24 12:52:00,
2013-08-24 07:57:00,71.6,66.2,29.84,SSE,150,7.0,19.0,83,0.00,,CLR,0.00,VWS V14.01,2013-08-24 12:57:00,
2013-08-24 08:02:00,71.8,66.4,29.84,ESE,115,8.0,10.0,83,0.00,,CLR,0.00,VWS V14.01,2013-08-24 13:02:00,
2013-08-24 08:07:00,72.0,66.2,29.84,SE,136,2.0,15.0,82,0.00,,CLR,0.00,VWS V14.01,2013-08-24 13:07:00,
2013-08-24 08:12:00,72.1,66.3,29.84,ESE,118,3.0,15.0,82,0.00,,CLR,0.00,VWS V14.01,2013-08-24 13:12:00,
2013-08-24 08:17:00,72.3,66.5,29.84,SE,132,11.0,15.0,82,0.00,,CLR,0.00,VWS V14.01,2013-08-24 13:17:00,
2013-08-24 08:22:00,72.7,66.5,29.84,ESE,115,16.0,16.0,81,0.00,,CLR,0.00,VWS V14.01,2013-08-24 13:22:00,
2013-08-24 08:27:00,72.8,66.6,29.84,SE,142,8.0,16.0,81,0.00,,CLR,0.00,VWS V14.01,2013-08-24 13:27:00,
2013-08-24 08:32:00,72.8,66.3,29.84,SE,136,12.0,13.0,80,0.00,,CLR,0.00,VWS V14.01,2013-08-24 13:32:00,
2013-08-24 08:37:00,73.2,66.7,29.84,ESE,115,8.0,13.0,80,0.00,,CLR,0.00,VWS V14.01,2013-08-24 13:37:00,
2013-08-24 08:42:00,73.3,66.4,29.84,ESE,109,3.0,13.0,79,0.00,,CLR,0.00,VWS V14.01,2013-08-24 13:42:00,
2013-08-24 08:47:00,73.3,66.8,29.84,SE,144,12.0,14.0,80,0.00,,CLR,0.00,VWS V14.01,2013-08-24 13:47:00,
2013-08-24 08:52:00,73.5,66.6,29.84,SE,133,6.0,14.0,79,0.00,,CLR,0.00,VWS V14.01,2013-08-24 13:52:00,
2013-08-24 08:57:00,73.7,67.2,29.84,ESE,113,11.0,16.0,80,0.00,,CLR,0.00,VWS V14.01,2013-08-24 13:57:00,
2013-08-24 09:02:00,73.9,67.3,29.84,ESE,110,5.0,13.0,80,0.00,,CLR,0.00,VWS V14.01,2013-08-24 14:02:00,
2013-08-24 09:07:00,73.9,67.0,29.84,SE,140,12.0,17.0,79,0.00,,CLR,0.00,VWS V14.01,2013-08-24 14:07:00,
2013-08-24 09:12:00,74.0,67.1,29.84,SE,136,7.0,17.0,79,0.00,,CLR,0.00,VWS V14.01,2013-08-24 14:12:00,
2013-08-24 09:17:00,74.2,67.3,29.84,ESE,116,10.0,17.0,79,0.00,,CLR,0.00,VWS V14.01,2013-08-24 14:17:00,
2013-08-24 09:22:00,74.4,67.5,29.84,ESE,106,11.0,17.0,79,0.00,,CLR,0.00,VWS V14.01,2013-08-24 14:22:00,
2013-08-24 09:27:00,74.4,67.5,29.84,ESE,120,10.0,17.0,79,0.00,,CLR,0.00,VWS V14.01,2013-08-24 14:27:00,
2013-08-24 09:32:00,74.6,67.7,29.84,SE,143,11.0,13.0,79,0.00,,CLR,0.00,VWS V14.01,2013-08-24 14:32:00,
2013-08-24 09:37:00,74.7,67.8,29.84,SE,129,7.0,16.0,79,0.00,,CLR,0.00,VWS V14.01,2013-08-24 14:37:00,
2013-08-24 09:42:00,74.9,67.9,29.84,SE,134,11.0,16.0,79,0.00,,CLR,0.00,VWS V14.01,2013-08-24 14:42:00,
2013-08-24 09:47:00,75.1,67.8,29.84,SE,132,11.0,18.0,78,0.00,,CLR,0.00,VWS V14.01,2013-08-24 14:47:00,
2013-08-24 09:52:00,75.4,67.7,29.84,SE,125,10.0,19.0,77,0.00,,CLR,0.00,VWS V14.01,2013-08-24 14:52:00,
2013-08-24 09:57:00,76.0,67.9,29.84,SE,130,2.0,19.0,76,0.00,,CLR,0.00,VWS V14.01,2013-08-24 14:57:00,
2013-08-24 10:02:00,76.1,67.6,29.83,SE,125,11.0,19.0,75,0.00,,CLR,0.00,VWS V14.01,2013-08-24 15:02:00,
2013-08-24 10:07:00,76.5,68.4,29.83,SE,126,13.0,20.0,76,0.00,,CLR,0.00,VWS V14.01,2013-08-24 15:07:00,
2013-08-24 10:12:00,76.8,68.3,29.83,ESE,113,13.0,22.0,75,0.00,,CLR,0.00,VWS V14.01,2013-08-24 15:12:00,
2013-08-24 10:17:00,77.4,68.9,29.83,SE,137,3.0,22.0,75,0.00,,CLR,0.00,VWS V14.01,2013-08-24 15:17:00,
2013-08-24 10:22:00,77.9,68.6,29.83,SE,134,19.0,22.0,73,0.00,,CLR,0.00,VWS V14.01,2013-08-24 15:22:00,
2013-08-24 10:27:00,78.3,68.9,29.83,SE,143,10.0,22.0,73,0.00,,CLR,0.00,VWS V14.01,2013-08-24 15:27:00,
2013-08-24 10:32:00,78.6,69.2,29.82,East,99,9.0,13.0,73,0.00,,CLR,0.00,VWS V14.01,2013-08-24 15:32:00,
2013-08-24 10:37:00,78.8,69.4,29.82,ESE,112,5.0,20.0,73,0.00,,CLR,0.00,VWS V14.01,2013-08-24 15:37:00,
2013-08-24 10:42:00,79.6,69.4,29.82,SE,140,13.0,20.0,71,0.00,,CLR,0.00,VWS V14.01,2013-08-24 15:42:00,
2013-08-24 10:47:00,80.1,69.4,29.82,SE,139,19.0,20.0,70,0.00,,CLR,0.00,VWS V14.01,2013-08-24 15:47:00,
2013-08-24 10:52:00,80.3,69.2,29.82,SE,132,3.0,20.0,69,0.00,,CLR,0.00,VWS V14.01,2013-08-24 15:52:00,
2013-08-24 10:57:00,80.5,69.4,29.82,ESE,118,13.0,20.0,69,0.00,,CLR,0.00,VWS V14.01,2013-08-24 15:57:00,
2013-08-24 11:02:00,80.1,69.4,29.82,SE,146,11.0,16.0,70,0.00,,CLR,0.00,VWS V14.01,2013-08-24 16:02:00,
2013-08-24 11:07:00,80.3,69.6,29.82,SE,130,14.0,21.0,70,0.00,,CLR,0.00,VWS V14.01,2013-08-24 16:07:00,
2013-08-24 11:12:00,80.5,69.8,29.82,SE,133,13.0,21.0,70,0.00,,CLR,0.00,VWS V14.01,2013-08-24 16:12:00,
2013-08-24 11:17:00,80.7,69.6,29.81,ESE,115,8.0,21.0,69,0.00,,CLR,0.00,VWS V14.01,2013-08-24 16:17:00,
2013-08-24 11:22:00,80.7,69.6,29.81,SSE,161,7.0,21.0,69,0.00,,CLR,0.00,VWS V14.01,2013-08-24 16:22:00,
2013-08-24 11:27:00,80.7,69.2,29.81,ESE,115,11.0,24.0,68,0.00,,CLR,0.00,VWS V14.01,2013-08-24 16:27:00,
2013-08-24 11:32:00,80.9,69.4,29.81,ESE,113,14.0,18.0,68,0.00,,CLR,0.00,VWS V14.01,2013-08-24 16:32:00,
2013-08-24 11:37:00,81.2,69.6,29.81,SSE,160,20.0,25.0,68,0.00,,CLR,0.00,VWS V14.01,2013-08-24 16:37:00,
2013-08-24 11:42:00,81.4,70.3,29.81,SE,134,2.0,25.0,69,0.00,,CLR,0.00,VWS V14.01,2013-08-24 16:42:00,
2013-08-24 11:47:00,81.8,71.1,29.79,SE,133,11.0,25.0,70,0.00,,CLR,0.00,VWS V14.01,2013-08-24 16:47:00,
2013-08-24 11:52:00,82.0,70.4,29.79,SSW,211,8.0,25.0,68,0.00,,CLR,0.00,VWS V14.01,2013-08-24 16:52:00,
2013-08-24 11:57:00,82.4,70.3,29.79,SE,144,17.0,25.0,67,0.00,,CLR,0.00,VWS V14.01,2013-08-24 16:57:00,
2013-08-24 12:02:00,82.4,70.3,29.79,SW,223,9.0,14.0,67,0.00,,CLR,0.00,VWS V14.01,2013-08-24 17:02:00,
2013-08-24 12:07:00,82.4,70.8,29.79,SE,127,6.0,20.0,68,0.00,,CLR,0.00,VWS V14.01,2013-08-24 17:07:00,
2013-08-24 12:12:00,82.6,71.0,29.79,SE,125,11.0,20.0,68,0.00,,CLR,0.00,VWS V14.01,2013-08-24 17:12:00,
2013-08-24 12:17:00,83.0,70.9,29.78,SE,143,13.0,20.0,67,0.00,,CLR,0.00,VWS V14.01,2013-08-24 17:17:00,
2013-08-24 12:22:00,83.0,70.5,29.78,SSW,205,11.0,29.0,66,0.00,,CLR,0.00,VWS V14.01,2013-08-24 17:22:00,
2013-08-24 12:27:00,83.2,70.7,29.78,SE,125,7.0,29.0,66,0.00,,CLR,0.00,VWS V14.01,2013-08-24 17:27:00,
2013-08-24 12:32:00,83.8,71.7,29.78,SSE,153,7.0,14.0,67,0.00,,CLR,0.00,VWS V14.01,2013-08-24 17:32:00,
2013-08-24 12:37:00,83.8,70.8,29.78,ESE,119,13.0,26.0,65,0.00,,CLR,0.00,VWS V14.01,2013-08-24 17:37:00,
2013-08-24 12:42:00,83.6,70.6,29.78,SE,130,16.0,26.0,65,0.00,,CLR,0.00,VWS V14.01,2013-08-24 17:42:00,
2013-08-24 12:47:00,83.8,71.2,29.78,ESE,120,19.0,26.0,66,0.00,,CLR,0.00,VWS V14.01,2013-08-24 17:47:00,
2013-08-24 12:52:00,84.0,71.0,29.78,SE,136,17.0,26.0,65,0.00,,CLR,0.00,VWS V14.01,2013-08-24 17:52:00,
2013-08-24 12:57:00,84.3,70.3,29.78,West,269,1.0,26.0,63,0.00,,CLR,0.00,VWS V14.01,2013-08-24 17:57:00,
2013-08-24 13:02:00,84.5,70.5,29.78,ESE,122,14.0,18.0,63,0.00,,CLR,0.00,VWS V14.01,2013-08-24 18:02:00,
2013-08-24 13:07:00,84.1,70.6,29.78,ESE,110,6.0,22.0,64,0.00,,CLR,0.00,VWS V14.01,2013-08-24 18:07:00,
2013-08-24 13:12:00,83.6,71.1,29.78,SE,127,3.0,22.0,66,0.00,,CLR,0.00,VWS V14.01,2013-08-24 18:12:00,
2013-08-24 13:17:00,83.6,71.1,29.78,SE,140,1.0,22.0,66,0.00,,CLR,0.00,VWS V14.01,2013-08-24 18:17:00,
2013-08-24 13:22:00,84.1,71.1,29.78,SSE,164,13.0,22.0,65,0.00,,CLR,0.00,VWS V14.01,2013-08-24 18:22:00,
2013-08-24 13:27:00,84.7,71.2,29.78,SE,146,7.0,22.0,64,0.00,,CLR,0.00,VWS V14.01,2013-08-24 18:27:00,
2013-08-24 13:32:00,84.9,70.9,29.78,ESE,108,7.0,18.0,63,0.00,,CLR,0.00,VWS V14.01,2013-08-24 18:32:00,
2013-08-24 13:37:00,85.3,71.8,29.78,SE,132,7.0,18.0,64,0.00,,CLR,0.00,VWS V14.01,2013-08-24 18:37:00,
2013-08-24 13:42:00,85.5,70.5,29.78,ESE,112,6.0,22.0,61,0.00,,CLR,0.00,VWS V14.01,2013-08-24 18:42:00,
2013-08-24 13:47:00,85.5,70.5,29.77,ESE,118,14.0,22.0,61,0.00,,CLR,0.00,VWS V14.01,2013-08-24 18:47:00,
2013-08-24 13:52:00,85.3,70.3,29.77,SE,125,12.0,24.0,61,0.00,,CLR,0.00,VWS V14.01,2013-08-24 18:52:00,
2013-08-24 13:57:00,85.5,70.5,29.77,SSW,204,7.0,24.0,61,0.00,,CLR,0.00,VWS V14.01,2013-08-24 18:57:00,
2013-08-24 14:02:00,86.3,70.8,29.77,ESE,122,7.0,14.0,60,0.00,,CLR,0.00,VWS V14.01,2013-08-24 19:02:00,
2013-08-24 14:07:00,86.3,71.3,29.77,SE,133,12.0,22.0,61,0.00,,CLR,0.00,VWS V14.01,2013-08-24 19:07:00,
2013-08-24 14:12:00,86.5,71.0,29.77,SE,125,9.0,24.0,60,0.00,,CLR,0.00,VWS V14.01,2013-08-24 19:12:00,
2013-08-24 14:17:00,86.7,71.7,29.77,SE,133,7.0,24.0,61,0.00,,CLR,0.00,VWS V14.01,2013-08-24 19:17:00,
2013-08-24 14:22:00,87.0,71.4,29.77,SSE,153,18.0,24.0,60,0.00,,CLR,0.00,VWS V14.01,2013-08-24 19:22:00,
2013-08-24 14:27:00,87.0,70.9,29.77,ESE,113,12.0,24.0,59,0.00,,CLR,0.00,VWS V14.01,2013-08-24 19:27:00,
2013-08-24 14:32:00,87.4,70.3,29.76,SSE,168,3.0,20.0,57,0.00,,CLR,0.00,VWS V14.01,2013-08-24 19:32:00,
2013-08-24 14:37:00,87.8,70.7,29.76,SE,139,21.0,21.0,57,0.00,,CLR,0.00,VWS V14.01,2013-08-24 19:37:00,
2013-08-24 14:42:00,87.4,70.8,29.76,ESE,116,6.0,25.0,58,0.00,,CLR,0.00,VWS V14.01,2013-08-24 19:42:00,
2013-08-24 14:47:00,88.0,70.3,29.76,East,96,13.0,25.0,56,0.00,,CLR,0.00,VWS V14.01,2013-08-24 19:47:00,
2013-08-24 14:52:00,87.8,70.2,29.76,SSE,149,5.0,25.0,56,0.00,,CLR,0.00,VWS V14.01,2013-08-24 19:52:00,
2013-08-24 14:57:00,87.6,70.0,29.76,SSE,157,7.0,25.0,56,0.00,,CLR,0.00,VWS V14.01,2013-08-24 19:57:00,
2013-08-24 15:02:00,88.2,70.5,29.76,ESE,109,7.0,12.0,56,0.00,,CLR,0.00,VWS V14.01,2013-08-24 20:02:00,
2013-08-24 15:07:00,88.2,70.0,29.76,SSE,158,18.0,20.0,55,0.00,,CLR,0.00,VWS V14.01,2013-08-24 20:07:00,
2013-08-24 15:12:00,88.0,70.3,29.76,ESE,120,16.0,26.0,56,0.00,,CLR,0.00,VWS V14.01,2013-08-24 20:12:00,
2013-08-24 15:17:00,88.2,70.0,29.75,SE,140,11.0,26.0,55,0.00,,CLR,0.00,VWS V14.01,2013-08-24 20:17:00,
2013-08-24 15:22:00,88.4,69.7,29.75,SSE,164,12.0,26.0,54,0.00,,CLR,0.00,VWS V14.01,2013-08-24 20:22:00,
2013-08-24 15:27:00,88.6,70.4,29.75,ESE,123,6.0,26.0,55,0.00,,CLR,0.00,VWS V14.01,2013-08-24 20:27:00,
2013-08-24 15:32:00,87.8,70.7,29.75,SSE,157,18.0,24.0,57,0.00,,CLR,0.00,VWS V14.01,2013-08-24 20:32:00,
2013-08-24 15:37:00,87.4,70.3,29.75,SE,130,10.0,24.0,57,0.00,,CLR,0.00,VWS V14.01,2013-08-24 20:37:00,
2013-08-24 15:42:00,87.4,70.3,29.75,SE,132,1.0,29.0,57,0.00,,CLR,0.00,VWS V14.01,2013-08-24 20:42:00,
2013-08-24 15:47:00,88.0,71.4,29.75,ESE,123,11.0,29.0,58,0.00,,CLR,0.00,VWS V14.01,2013-08-24 20:47:00,
2013-08-24 15:52:00,87.6,71.5,29.75,SSE,163,18.0,29.0,59,0.00,,CLR,0.00,VWS V14.01,2013-08-24 20:52:00,
2013-08-24 15:58:00,87.0,70.4,29.75,SE,143,11.0,29.0,58,0.00,,CLR,0.00,VWS V14.01,2013-08-24 20:58:00,
2013-08-24 16:03:00,86.7,70.2,29.75,ESE,120,10.0,24.0,58,0.00,,CLR,0.00,VWS V14.01,2013-08-24 21:03:00,
2013-08-24 16:08:00,86.5,71.0,29.75,ESE,118,17.0,25.0,60,0.00,,CLR,0.00,VWS V14.01,2013-08-24 21:08:00,
2013-08-24 16:13:00,87.4,70.3,29.75,ESE,120,8.0,25.0,57,0.00,,CLR,0.00,VWS V14.01,2013-08-24 21:13:00,
2013-08-24 16:18:00,87.0,69.9,29.75,East,84,18.0,25.0,57,0.00,,CLR,0.00,VWS V14.01,2013-08-24 21:18:00,
2013-08-24 16:23:00,86.3,70.3,29.75,SE,140,16.0,25.0,59,0.00,,CLR,0.00,VWS V14.01,2013-08-24 21:23:00,
2013-08-24 16:28:00,85.9,70.4,29.75,SE,140,8.0,25.0,60,0.00,,CLR,0.00,VWS V14.01,2013-08-24 21:28:00,
2013-08-24 16:33:00,85.9,70.4,29.75,SE,143,6.0,17.0,60,0.00,,CLR,0.00,VWS V14.01,2013-08-24 21:33:00,
2013-08-24 16:38:00,86.1,69.6,29.75,SSE,163,7.0,18.0,58,0.00,,CLR,0.00,VWS V14.01,2013-08-24 21:38:00,
2013-08-24 16:43:00,86.5,69.5,29.75,ESE,116,6.0,18.0,57,0.00,,CLR,0.00,VWS V14.01,2013-08-24 21:43:00,
2013-08-24 16:48:00,86.5,69.5,29.75,SE,125,3.0,19.0,57,0.00,,CLR,0.00,VWS V14.01,2013-08-24 21:48:00,
2013-08-24 16:53:00,86.7,70.7,29.75,SE,127,14.0,19.0,59,0.00,,CLR,0.00,VWS V14.01,2013-08-24 21:53:00,
2013-08-24 16:58:00,86.7,68.6,29.75,SSE,147,11.0,22.0,55,0.00,,CLR,0.00,VWS V14.01,2013-08-24 21:58:00,
2013-08-24 17:03:00,86.1,69.1,29.74,SE,127,16.0,25.0,57,0.00,,CLR,0.00,VWS V14.01,2013-08-24 22:03:00,
2013-08-24 17:08:00,86.3,69.3,29.74,ESE,116,8.0,25.0,57,0.00,,CLR,0.00,VWS V14.01,2013-08-24 22:08:00,
2013-08-24 17:13:00,85.9,69.4,29.74,ESE,120,12.0,25.0,58,0.00,,CLR,0.00,VWS V14.01,2013-08-24 22:13:00,
2013-08-24 17:18:00,85.7,69.2,29.74,ESE,122,14.0,25.0,58,0.00,,CLR,0.00,VWS V14.01,2013-08-24 22:18:00,
2013-08-24 17:23:00,85.9,69.4,29.74,SE,134,18.0,25.0,58,0.00,,CLR,0.00,VWS V14.01,2013-08-24 22:23:00,
2013-08-24 17:28:00,85.7,69.7,29.74,SE,140,14.0,25.0,59,0.00,,CLR,0.00,VWS V14.01,2013-08-24 22:28:00,
2013-08-24 17:33:00,85.9,69.9,29.74,SE,126,7.0,24.0,59,0.00,,CLR,0.00,VWS V14.01,2013-08-24 22:33:00,
2013-08-24 17:38:00,85.3,69.8,29.74,South,177,3.0,24.0,60,0.00,,CLR,0.00,VWS V14.01,2013-08-24 22:38:00,
2013-08-24 17:43:00,84.7,69.8,29.74,SSE,154,16.0,25.0,61,0.00,,CLR,0.00,VWS V14.01,2013-08-24 22:43:00,
2013-08-24 17:48:00,84.7,69.8,29.73,SSE,167,14.0,26.0,61,0.00,,CLR,0.00,VWS V14.01,2013-08-24 22:48:00,
2013-08-24 17:53:00,84.5,70.1,29.73,SSE,149,17.0,26.0,62,0.00,,CLR,0.00,VWS V14.01,2013-08-24 22:53:00,
2013-08-24 17:58:00,84.5,69.6,29.73,SSE,168,21.0,26.0,61,0.00,,CLR,0.00,VWS V14.01,2013-08-24 22:58:00,
2013-08-24 18:03:00,84.7,69.8,29.73,SSE,160,13.0,25.0,61,0.00,,CLR,0.00,VWS V14.01,2013-08-24 23:03:00,
2013-08-24 18:08:00,84.5,70.1,29.73,SE,126,12.0,25.0,62,0.00,,CLR,0.00,VWS V14.01,2013-08-24 23:08:00,
2013-08-24 18:13:00,84.5,70.5,29.73,SSE,153,10.0,25.0,63,0.00,,CLR,0.00,VWS V14.01,2013-08-24 23:13:00,
2013-08-24 18:18:00,84.1,70.6,29.73,SE,142,10.0,27.0,64,0.00,,CLR,0.00,VWS V14.01,2013-08-24 23:18:00,
2013-08-24 18:23:00,84.0,70.5,29.73,SE,144,7.0,27.0,64,0.00,,CLR,0.00,VWS V14.01,2013-08-24 23:23:00,
2013-08-24 18:28:00,84.0,70.5,29.73,SE,137,12.0,28.0,64,0.00,,CLR,0.00,VWS V14.01,2013-08-24 23:28:00,
2013-08-24 18:33:00,83.8,70.8,29.72,SE,133,7.0,22.0,65,0.00,,CLR,0.00,VWS V14.01,2013-08-24 23:33:00,
2013-08-24 18:38:00,83.4,70.9,29.72,South,170,16.0,22.0,66,0.00,,CLR,0.00,VWS V14.01,2013-08-24 23:38:00,
2013-08-24 18:43:00,83.4,70.9,29.72,SE,126,9.0,22.0,66,0.00,,CLR,0.00,VWS V14.01,2013-08-24 23:43:00,
2013-08-24 18:48:00,83.4,70.9,29.72,ESE,102,12.0,27.0,66,0.00,,CLR,0.00,VWS V14.01,2013-08-24 23:48:00,
2013-08-24 18:53:00,83.2,70.7,29.72,SE,125,9.0,27.0,66,0.00,,CLR,0.00,VWS V14.01,2013-08-24 23:53:00,
2013-08-24 18:58:00,83.0,70.9,29.72,SE,134,19.0,27.0,67,0.00,,CLR,0.00,VWS V14.01,2013-08-24 23:58:00,
2013-08-24 19:03:00,82.8,71.2,29.72,ESE,115,13.0,17.0,68,0.00,,CLR,0.00,VWS V14.01,2013-08-25 00:03:00,
2013-08-24 19:08:00,82.6,71.0,29.72,ESE,115,11.0,20.0,68,0.00,,CLR,0.00,VWS V14.01,2013-08-25 00:08:00,
2013-08-24 19:13:00,82.6,71.0,29.72,ESE,110,13.0,25.0,68,0.00,,CLR,0.00,VWS V14.01,2013-08-25 00:13:00,
2013-08-24 19:18:00,82.6,71.4,29.72,ESE,105,6.0,25.0,69,0.00,,CLR,0.00,VWS V14.01,2013-08-25 00:18:00,
2013-08-24 19:23:00,82.4,71.2,29.72,SSE,167,7.0,25.0,69,0.00,,CLR,0.00,VWS V14.01,2013-08-25 00:23:00,
2013-08-24 19:28:00,82.4,71.6,29.72,ESE,123,13.0,25.0,70,0.00,,CLR,0.00,VWS V14.01,2013-08-25 00:28:00,
2013-08-24 19:33:00,82.2,71.4,29.71,ESE,112,12.0,20.0,70,0.00,,CLR,0.00,VWS V14.01,2013-08-25 00:33:00,
2013-08-24 19:38:00,82.0,71.7,29.71,ESE,103,6.0,20.0,71,0.00,,CLR,0.00,VWS V14.01,2013-08-25 00:38:00,
2013-08-24 19:43:00,81.8,71.5,29.71,SSE,166,16.0,21.0,71,0.00,,CLR,0.00,VWS V14.01,2013-08-25 00:43:00,
2013-08-24 19:48:00,81.6,71.3,29.71,ESE,109,10.0,26.0,71,0.00,,CLR,0.00,VWS V14.01,2013-08-25 00:48:00,
2013-08-24 19:53:00,81.6,71.7,29.71,ESE,123,25.0,26.0,72,0.00,,CLR,0.00,VWS V14.01,2013-08-25 00:53:00,
2013-08-24 19:58:00,81.4,71.5,29.71,SE,146,14.0,26.0,72,0.00,,CLR,0.00,VWS V14.01,2013-08-25 00:58:00,
2013-08-24 20:03:00,81.4,71.9,29.71,South,190,8.0,24.0,73,0.00,,CLR,0.00,VWS V14.01,2013-08-25 01:03:00,
2013-08-24 20:08:00,81.2,71.7,29.71,SSE,150,10.0,24.0,73,0.00,,CLR,0.00,VWS V14.01,2013-08-25 01:08:00,
2013-08-24 20:13:00,81.2,71.7,29.71,SE,140,7.0,24.0,73,0.00,,CLR,0.00,VWS V14.01,2013-08-25 01:13:00,
2013-08-24 20:18:00,81.1,72.0,29.72,SE,139,17.0,24.0,74,0.00,,CLR,0.00,VWS V14.01,2013-08-25 01:18:00,
2013-08-24 20:23:00,81.1,72.0,29.72,SE,126,8.0,24.0,74,0.00,,CLR,0.00,VWS V14.01,2013-08-25 01:23:00,
2013-08-24 20:28:00,81.1,72.0,29.72,ESE,103,2.0,24.0,74,0.00,,CLR,0.00,VWS V14.01,2013-08-25 01:28:00,
2013-08-24 20:33:00,80.9,71.8,29.72,ESE,113,11.0,20.0,74,0.00,,CLR,0.00,VWS V14.01,2013-08-25 01:33:00,
2013-08-24 20:38:00,80.9,71.8,29.72,SE,127,20.0,20.0,74,0.00,,CLR,0.00,VWS V14.01,2013-08-25 01:38:00,
2013-08-24 20:43:00,80.7,71.7,29.72,SSE,158,5.0,20.0,74,0.00,,CLR,0.00,VWS V14.01,2013-08-25 01:43:00,
2013-08-24 20:48:00,80.7,71.7,29.72,ESE,119,11.0,20.0,74,0.00,,CLR,0.00,VWS V14.01,2013-08-25 01:48:00,
2013-08-24 20:53:00,80.7,72.0,29.72,SE,143,10.0,22.0,75,0.00,,CLR,0.00,VWS V14.01,2013-08-25 01:53:00,
2013-08-24 20:58:00,80.7,72.0,29.72,WSW,246,4.0,22.0,75,0.00,,CLR,0.00,VWS V14.01,2013-08-25 01:58:00,
2013-08-24 21:03:00,80.5,71.8,29.73,SSE,149,10.0,17.0,75,0.00,,CLR,0.00,VWS V14.01,2013-08-25 02:03:00,
2013-08-24 21:08:00,80.5,71.8,29.73,SE,129,3.0,18.0,75,0.00,,CLR,0.00,VWS V14.01,2013-08-25 02:08:00,
2013-08-24 21:13:00,80.5,71.8,29.73,SE,133,11.0,19.0,75,0.00,,CLR,0.00,VWS V14.01,2013-08-25 02:13:00,
2013-08-24 21:18:00,80.5,71.8,29.72,SE,130,5.0,19.0,75,0.00,,CLR,0.00,VWS V14.01,2013-08-25 02:18:00,
2013-08-24 21:23:00,80.5,71.8,29.72,SE,133,12.0,19.0,75,0.00,,CLR,0.00,VWS V14.01,2013-08-25 02:23:00,
2013-08-24 21:28:00,80.5,71.8,29.72,ESE,105,7.0,20.0,75,0.00,,CLR,0.00,VWS V14.01,2013-08-25 02:28:00,
2013-08-24 21:33:00,80.5,71.8,29.72,SE,133,8.0,17.0,75,0.00,,CLR,0.00,VWS V14.01,2013-08-25 02:33:00,
2013-08-24 21:38:00,80.5,71.8,29.72,SE,133,11.0,18.0,75,0.00,,CLR,0.00,VWS V14.01,2013-08-25 02:38:00,
2013-08-24 21:43:00,80.5,71.5,29.72,ESE,122,6.0,20.0,74,0.00,,CLR,0.00,VWS V14.01,2013-08-25 02:43:00,
2013-08-24 21:48:00,80.5,71.5,29.73,SE,133,18.0,20.0,74,0.00,,CLR,0.00,VWS V14.01,2013-08-25 02:48:00,
2013-08-24 21:53:00,80.3,71.3,29.73,SE,129,8.0,20.0,74,0.00,,CLR,0.00,VWS V14.01,2013-08-25 02:53:00,
2013-08-24 21:58:00,80.3,71.3,29.73,SE,142,6.0,20.0,74,0.00,,CLR,0.00,VWS V14.01,2013-08-25 02:58:00,
2013-08-24 22:03:00,80.3,71.3,29.73,South,174,15.0,18.0,74,0.00,,CLR,0.00,VWS V14.01,2013-08-25 03:03:00,
2013-08-24 22:08:00,80.3,71.3,29.73,SE,133,3.0,18.0,74,0.00,,CLR,0.00,VWS V14.01,2013-08-25 03:08:00,
2013-08-24 22:13:00,80.3,71.3,29.73,ESE,116,13.0,18.0,74,0.00,,CLR,0.00,VWS V14.01,2013-08-25 03:13:00,
2013-08-24 22:18:00,80.3,71.3,29.73,SE,136,5.0,18.0,74,0.00,,CLR,0.00,VWS V14.01,2013-08-25 03:18:00,
2013-08-24 22:23:00,80.1,71.1,29.73,SSE,154,14.0,18.0,74,0.00,,CLR,0.00,VWS V14.01,2013-08-25 03:23:00,
2013-08-24 22:28:00,80.1,71.1,29.73,SE,140,7.0,18.0,74,0.00,,CLR,0.00,VWS V14.01,2013-08-25 03:28:00,
2013-08-24 22:33:00,80.1,71.1,29.73,South,181,11.0,12.0,74,0.00,,CLR,0.00,VWS V14.01,2013-08-25 03:33:00,
2013-08-24 22:38:00,80.1,71.1,29.73,ESE,110,10.0,16.0,74,0.00,,CLR,0.00,VWS V14.01,2013-08-25 03:38:00,
2013-08-24 22:43:00,80.1,70.7,29.73,SE,143,7.0,16.0,73,0.00,,CLR,0.00,VWS V14.01,2013-08-25 03:43:00,
2013-08-24 22:48:00,79.9,70.5,29.73,SE,133,10.0,16.0,73,0.00,,CLR,0.00,VWS V14.01,2013-08-25 03:48:00,
2013-08-24 22:53:00,79.9,70.5,29.73,SSE,157,7.0,16.0,73,0.00,,CLR,0.00,VWS V14.01,2013-08-25 03:53:00,
2013-08-24 22:58:00,80.1,70.7,29.73,ESE,123,3.0,17.0,73,0.00,,CLR,0.00,VWS V14.01,2013-08-25 03:58:00,
2013-08-24 23:01:00,80.1,70.3,29.73,ESE,118,7.0,11.0,72,0.00,,CLR,0.00,VWS V14.01,2013-08-25 04:01:00,
2013-08-24 23:03:00,80.1,70.3,29.73,South,170,8.0,12.0,72,0.00,,CLR,0.00,VWS V14.01,2013-08-25 04:03:00,
2013-08-24 23:08:00,80.1,70.3,29.73,SSE,151,9.0,18.0,72,0.00,,CLR,0.00,VWS V14.01,2013-08-25 04:08:00,
2013-08-24 23:13:00,80.1,70.3,29.73,ESE,113,9.0,18.0,72,0.00,,CLR,0.00,VWS V14.01,2013-08-25 04:13:00,
2013-08-24 23:18:00,80.3,70.5,29.73,SSE,156,12.0,19.0,72,0.00,,CLR,0.00,VWS V14.01,2013-08-25 04:18:00,
2013-08-24 23:23:00,80.3,70.1,29.73,SE,125,14.0,19.0,71,0.00,,CLR,0.00,VWS V14.01,2013-08-25 04:23:00,
2013-08-24 23:28:00,80.3,70.1,29.73,SSE,157,10.0,19.0,71,0.00,,CLR,0.00,VWS V14.01,2013-08-25 04:28:00,
2013-08-24 23:33:00,80.5,69.8,29.74,West,270,13.0,17.0,70,0.00,,CLR,0.00,VWS V14.01,2013-08-25 04:33:00,
2013-08-24 23:38:00,80.7,70.0,29.74,ESE,109,2.0,18.0,70,0.00,,CLR,0.00,VWS V14.01,2013-08-25 04:38:00,
2013-08-24 23:43:00,80.5,69.8,29.74,ESE,116,13.0,18.0,70,0.00,,CLR,0.00,VWS V14.01,2013-08-25 04:43:00,
2013-08-24 23:48:00,80.5,69.8,29.74,SE,133,1.0,18.0,70,0.00,,CLR,0.00,VWS V14.01,2013-08-25 04:48:00,
2013-08-24 23:53:00,80.3,69.6,29.74,WSW,246,3.0,18.0,70,0.00,,CLR,0.00,VWS V14.01,2013-08-25 04:53:00,
2013-08-24 23:58:00,80.3,69.6,29.74,ESE,108,7.0,18.0,70,0.00,,CLR,0.00,VWS V14.01,2013-08-25 04:58:00,